SCP
6 7 6 6 8 10 11 11 9 6 3 2 2 2 2 3 2 2 3 2 0 0 0 0 0 0 1 1 1 1 1 1 1 1 1 1 1 1
7 7 7 6 7 8 9 9 8 5 3 2 1 2 2 2 2 3 3 2 1 0 0 0 0 0 0 0 1 1 1 1 1 1 1 1 1 1
8 8 7 7 6 6 6 6 5 4 2 1 1 2 2 3 3 3 3 2 1 1 0 0 0 0 0 0 0 0 1 1 1 1 1 1 1 1
9 9 8 7 6 5 5 5 4 2 2 2 2 2 2 3 3 3 3 3 2 1 0 0 0 0 0 0 0 0 0 0 1 1 1 1 1 1
10 10 9 7 5 5 5 4 3 2 2 2 2 2 2 3 3 3 3 3 2 1 1 0 0 0 0 0 0 0 0 0 0 0 0 0 0 1
9 8 7 5 4 4 4 3 2 2 2 2 2 2 3 4 4 3 3 4 3 2 2 1 0 0 0 0 0 0 0 0 0 0 0 0 0 0
6 5 4 3 2 2 2 2 1 2 2 2 2 2 3 4 4 4 4 4 4 4 3 2 2 1 0 0 0 0 0 0 0 0 0 0 0 0
4 3 2 2 1 1 1 1 1 1 1 1 1 1 2 3 3 4 4 4 4 4 4 3 3 2 1 1 0 0 0 0 0 0 0 0 0 0
3 2 2 1 1 1 1 1 1 1 1 1 1 1 1 2 2 2 3 4 4 4 4 4 4 3 2 2 1 0 0 0 0 0 0 0 0 0
2 2 1 1 1 1 1 1 1 1 1 1 1 1 1 1 1 1 2 2 2 3 3 4 3 3 3 3 2 1 0 0 0 0 0 0 0 0
1 1 1 1 1 1 1 1 2 2 1 1 1 0 0 0 1 1 1 1 1 2 2 3 3 3 3 3 3 2 1 0 0 0 0 0 0 0
1 1 1 1 1 1 1 2 2 2 2 1 1 0 0 0 0 0 1 1 1 1 1 2 2 3 3 3 3 3 2 1 0 0 0 0 0 0
1 1 1 1 0 0 1 1 2 2 2 2 1 1 1 0 0 0 1 1 1 1 1 2 2 3 3 3 3 4 3 3 1 0 0 0 0 0
1 1 1 1 0 0 0 1 1 1 1 2 2 1 1 1 0 1 1 1 2 2 2 2 2 2 2 3 3 3 4 3 2 1 0 0 0 0
1 1 1 0 0 0 0 0 0 0 1 1 1 1 1 1 1 1 1 1 1 2 3 3 3 2 2 2 2 2 2 2 1 1 0 0 0 0
1 1 1 0 0 0 0 0 0 0 1 1 1 1 1 1 1 1 1 1 1 1 3 4 4 4 3 2 2 2 1 0 0 0 0 0 0 0
1 1 1 1 1 1 1 1 0 1 1 1 1 1 0 1 1 1 1 0 0 1 2 4 5 5 4 2 2 1 1 0 0 0 0 0 0 0
1 1 1 1 1 1 1 1 1 1 1 1 1 1 0 0 1 1 1 0 0 0 1 3 4 4 3 1 1 1 0 0 0 0 0 0 0 0
1 1 1 1 1 1 1 1 1 1 1 1 1 1 0 0 0 0 0 0 0 0 1 2 3 3 2 1 0 0 0 0 0 0 0 0 0 0
0 1 1 1 1 1 1 1 1 1 1 1 1 1 1 0 0 0 0 0 0 0 0 1 1 1 1 1 0 0 0 0 0 0 0 0 0 0
0 0 1 1 1 1 1 2 2 1 1 1 1 1 1 0 0 0 0 0 0 0 0 0 0 0 0 0 0 0 0 0 0 0 0 0 0 0
1 1 1 1 1 2 2 2 2 1 1 1 1 1 1 0 0 0 0 0 0 0 0 0 0 0 0 0 0 0 0 0 0 0 0 0 0 0
1 1 1 1 1 2 2 2 1 1 1 1 1 1 1 0 0 0 0 0 0 0 0 0 0 0 0 0 0 0 0 0 0 0 0 0 0 0
Wind_Speed
2 2 2 3 2 2 1 1 2 2 2 2 1 1 1 1 3 3 2 5 6 6 6 6 7 7 6 6 5 5 4 4 5 5 6 7 8 8
2 2 3 2 2 2 2 2 2 2 2 1 1 1 1 2 3 3 3 5 6 7 7 7 7 7 7 6 6 5 5 5 5 5 6 6 6 6
2 3 3 3 2 2 2 1 2 2 2 2 1 2 2 2 3 4 3 4 4 8 8 8 7 7 8 7 6 5 5 6 6 6 6 7 7 7
2 2 3 2 2 2 2 2 2 2 2 3 2 2 3 3 3 3 3 3 3 7 8 8 8 8 8 7 6 6 5 5 5 5 6 6 7 7
2 2 2 2 2 2 2 2 2 2 2 2 3 2 2 2 3 3 2 2 3 4 7 7 8 8 8 8 7 6 6 5 5 5 5 5 6 6
2 2 2 2 2 3 2 2 2 2 2 2 3 2 2 2 2 2 1 1 2 2 3 5 6 7 7 8 8 7 7 6 6 5 5 5 5 5
2 2 1 1 2 3 3 2 2 2 2 2 3 2 2 1 2 2 2 1 1 1 1 3 3 3 4 6 8 8 8 7 7 6 6 6 5 5
2 2 1 1 2 2 4 4 4 3 3 3 3 3 2 2 1 2 2 2 2 1 1 2 2 2 3 3 6 9 9 8 8 8 7 7 6 6
2 2 3 2 1 1 2 3 3 5 6 5 4 3 3 2 2 2 2 2 3 2 1 2 1 2 2 2 5 7 8 9 9 8 8 8 8 8
2 2 2 2 3 3 3 2 2 3 4 3 3 3 3 2 2 2 2 2 1 1 1 2 2 2 2 1 5 7 8 8 9 9 8 7 7 7
2 2 2 1 2 3 3 3 2 2 3 3 3 3 3 3 3 2 2 1 2 2 2 2 2 1 1 1 3 6 7 8 9 9 9 8 8 6
1 0 2 2 2 2 2 2 3 3 3 3 2 2 2 3 3 3 2 2 2 2 2 2 2 2 2 2 2 3 4 6 8 9 10 9 8 5
2 1 1 1 2 3 3 2 3 4 3 3 2 2 2 2 2 2 2 2 3 3 2 2 2 2 2 2 2 3 3 3 3 4 7 9 9 7
2 2 1 2 3 4 3 3 4 4 3 3 2 2 2 2 1 1 2 2 3 3 3 2 2 2 2 2 2 2 2 3 3 3 3 5 7 9
2 3 3 4 4 4 5 5 3 3 3 3 2 2 1 2 1 1 2 2 3 3 2 2 2 2 2 2 2 1 1 2 2 2 2 3 3 4
3 3 4 5 5 5 3 2 2 3 2 2 2 1 1 1 2 1 2 2 2 2 1 1 1 1 2 2 2 2 1 1 1 1 1 1 2 2
3 3 3 2 2 2 1 2 2 2 2 2 2 2 2 1 2 1 1 1 1 1 1 1 1 0 1 2 2 2 1 1 1 1 1 1 1 1
3 3 3 3 3 2 2 1 1 1 1 2 1 1 2 2 1 1 1 1 1 1 1 1 1 1 1 1 1 2 1 1 1 1 1 1 1 1
3 3 3 3 3 2 1 1 1 1 1 1 1 1 2 2 1 1 1 1 1 1 2 1 1 2 2 2 2 1 2 2 1 1 1 1 1 1
3 3 3 2 2 2 1 1 1 0 1 1 1 1 2 2 2 2 1 1 2 1 1 1 1 1 2 2 1 1 1 1 1 1 1 1 1 1
3 3 2 1 1 1 1 0 1 1 1 1 1 2 2 2 2 2 1 1 2 1 1 1 1 1 1 0 0 1 1 1 1 2 2 1 1 1
2 2 1 0 0 1 1 0 1 1 1 1 1 2 2 2 2 2 2 1 1 1 1 1 1 1 1 1 1 1 0 1 1 0 1 2 2 2
1 1 1 1 1 1 1 2 2 2 2 2 2 2 2 2 2 1 1 1 1 1 1 1 1 1 0 1 1 0 1 1 1 1 1 3 5 5
Wind_Direction
276 281 270 272 267 262 245 222 230 252 264 256 224 222 208 188 173 195 189 196 203 200 202 202 200 201 206 207 211 215 220 219 217 214 217 220 224 226
286 290 286 285 292 290 290 275 252 241 258 250 242 245 263 245 200 214 203 201 204 204 205 201 198 199 202 205 211 213 213 211 211 212 213 217 219 225
299 296 291 285 288 283 279 283 266 235 246 273 260 232 232 247 228 227 207 198 202 203 203 200 200 201 204 205 205 206 207 206 209 212 214 216 220 221
309 306 301 305 295 281 284 274 270 251 234 259 262 246 238 233 226 225 221 209 203 195 195 195 198 201 203 204 202 202 205 205 208 212 217 217 220 224
320 316 318 321 310 301 281 267 263 268 246 251 263 254 249 235 230 236 235 225 234 193 189 195 197 198 201 204 203 202 202 203 207 209 215 221 218 215
328 327 317 317 313 302 289 280 273 269 270 269 271 265 257 242 216 223 241 232 254 223 188 191 195 199 203 203 202 201 201 203 205 206 210 211 206 202
331 317 314 334 324 315 306 295 290 274 270 268 269 275 263 249 225 224 231 236 253 245 188 196 186 195 203 209 207 205 203 203 204 203 205 206 205 208
319 312 284 261 299 292 297 288 275 265 267 269 269 271 270 256 239 237 226 231 254 241 215 232 195 202 207 202 202 198 200 202 201 201 204 206 210 214
294 297 308 325 332 308 293 292 284 270 256 255 259 261 266 259 244 252 239 246 259 241 218 260 224 225 221 218 189 187 192 196 200 203 205 207 212 217
291 294 299 320 337 325 302 308 297 288 268 262 264 265 263 256 239 239 239 259 282 271 217 257 249 239 237 186 187 186 193 199 202 203 204 209 215 218
280 309 316 344 345 327 315 306 304 308 323 315 281 266 260 263 242 233 233 233 253 256 234 240 254 248 233 207 204 195 196 202 207 207 206 211 219 219
284 305 41 14 348 333 316 310 308 307 312 313 292 274 254 247 238 228 239 241 255 264 252 233 247 244 253 230 204 199 210 217 216 215 213 213 212 211
307 316 13 352 322 317 302 292 288 297 296 277 273 267 258 247 233 236 240 241 253 262 247 224 248 254 240 247 230 208 198 201 204 218 219 220 213 203
304 311 337 310 305 300 285 287 295 301 286 275 272 276 276 275 259 249 252 254 250 249 235 221 237 233 246 265 265 224 205 209 195 197 199 204 212 215
289 305 292 282 281 270 260 277 285 277 281 287 281 273 264 258 251 246 260 267 264 261 253 236 234 240 238 251 256 253 240 231 206 194 191 193 199 194
266 283 278 272 267 278 272 258 257 275 282 284 285 276 268 256 255 246 252 252 258 265 252 216 224 250 257 254 246 252 249 241 234 202 197 213 198 182
292 269 266 264 256 250 244 239 246 256 271 281 300 310 299 282 281 275 253 287 280 260 253 212 168 171 276 266 254 253 250 262 244 210 204 240 228 189
273 267 264 259 262 259 248 254 256 276 296 296 304 318 315 309 311 327 320 308 286 264 245 219 190 214 287 304 294 257 245 239 240 218 202 217 256 216
251 262 261 263 269 266 258 256 267 304 299 303 300 303 302 305 306 305 307 318 305 281 265 246 215 207 234 264 288 277 245 250 233 221 215 202 221 228
243 259 263 258 264 275 280 294 292 310 313 311 317 316 311 309 308 301 295 313 311 298 296 296 257 231 239 252 258 286 263 244 237 231 230 221 192 187
260 262 277 282 284 286 282 313 317 316 325 320 323 315 314 313 307 306 305 299 300 322 338 312 267 243 243 265 327 313 337 304 239 212 223 216 222 223
273 281 290 339 359 316 308 329 345 346 330 318 305 303 307 303 298 297 305 316 327 336 330 324 276 254 264 258 268 256 297 333 321 273 263 225 212 212
291 312 335 358 12 354 2 4 10 3 347 331 322 318 315 306 301 302 321 324 313 287 290 304 331 336 298 210 254 287 316 288 281 305 304 262 233 232